,,PA_Meas_PMT16A,,PR_Meas_QMR101_102,,RH_Meas_QMH101,,SR_Meas_QMS101,,TA_Meas_QMH101,,GenWind,,GenWind,
time,status,PA,status,PR,status,RH,status,SR,status,TA,status,DirAvg,status,SpdAvg,
2012-02-03, 00:00:04,VALID,918.784,VALID,0,VALID,91.5877,VALID,0,VALID,19.1568,VALID,121,VALID,0.851563,
2012-02-03, 00:01:04,VALID,918.799,VALID,0,VALID,91.6487,VALID,0,VALID,19.1958,VALID,121,VALID,0.667188,
2012-02-03, 00:02:04,VALID,918.797,VALID,0,VALID,91.5115,VALID,0,VALID,19.1749,VALID,121,VALID,0.859375,
2012-02-03, 00:03:04,VALID,918.787,VALID,0,VALID,91.3743,VALID,0,VALID,19.2153,VALID,120,VALID,0.836719,
2012-02-03, 00:04:04,VALID,918.762,VALID,0,VALID,91.3743,VALID,0,VALID,19.2348,VALID,121,VALID,0.501172,
2012-02-03, 00:05:04,VALID,918.77,VALID,0,VALID,91.2752,VALID,0,VALID,19.2738,VALID,120,VALID,0.616797,
2012-02-03, 00:06:04,VALID,918.806,VALID,0,VALID,91.1303,VALID,0,VALID,19.2933,VALID,120,VALID,0.728906,
2012-02-03, 00:07:04,VALID,918.764,VALID,0,VALID,91.2523,VALID,0,VALID,19.2528,VALID,121,VALID,0.773047,
2012-02-03, 00:08:04,VALID,918.763,VALID,0,VALID,91.2828,VALID,0,VALID,19.2348,VALID,120,VALID,0.682422,
2012-02-03, 00:09:04,VALID,918.745,VALID,0,VALID,91.0693,VALID,0,VALID,19.2348,VALID,121,VALID,1.01875,
2012-02-03, 00:10:04,VALID,918.766,VALID,0,VALID,90.9169,VALID,0,VALID,19.2528,VALID,120,VALID,1.01641,
2012-02-03, 00:11:04,VALID,918.729,VALID,0,VALID,90.7415,VALID,0,VALID,19.3128,VALID,120,VALID,1.09766,
2012-02-03, 00:12:04,VALID,918.718,VALID,0,VALID,90.6119,VALID,0,VALID,19.2738,VALID,121,VALID,1.30273,
2012-02-03, 00:13:04,VALID,918.718,VALID,0,VALID,90.5128,VALID,0,VALID,19.3713,VALID,120,VALID,0.871484,
2012-02-03, 00:14:04,VALID,918.693,VALID,0,VALID,90.429,VALID,0,VALID,19.3908,VALID,120,VALID,1.10391,
2012-02-03, 00:15:04,VALID,918.66,VALID,0,VALID,90.307,VALID,0,VALID,19.4298,VALID,121,VALID,0.855078,
2012-02-03, 00:16:04,VALID,918.606,VALID,0,VALID,90.1926,VALID,0,VALID,19.4493,VALID,120,VALID,0.85625,
2012-02-03, 00:17:04,VALID,918.589,VALID,0,VALID,90.063,VALID,0,VALID,19.4508,VALID,120,VALID,0.917578,
2012-02-03, 00:18:04,VALID,918.537,VALID,0,VALID,90.1393,VALID,0,VALID,19.4493,VALID,121,VALID,0.898828,
2012-02-03, 00:19:04,VALID,918.512,VALID,0,VALID,90.2917,VALID,0,VALID,19.3908,VALID,121,VALID,0.784766,
2012-02-03, 00:20:04,VALID,918.495,VALID,0,VALID,90.8483,VALID,0,VALID,19.3323,VALID,59,VALID,1.28672,
2012-02-03, 00:21:04,VALID,918.477,VALID,0,VALID,91.0007,VALID,0,VALID,19.2153,VALID,39,VALID,1.22109,
2012-02-03, 00:22:04,VALID,918.449,VALID,0,VALID,91.3057,VALID,0,VALID,19.1373,VALID,64,VALID,1.32227,
2012-02-03, 00:23:04,VALID,918.43,VALID,0,VALID,91.5191,VALID,0,VALID,19.1178,VALID,64,VALID,0.934766,
2012-02-03, 00:24:04,VALID,918.429,VALID,0,VALID,91.603,VALID,0,VALID,19.0593,VALID,65,VALID,0.766016,
2012-02-03, 00:25:04,VALID,918.433,VALID,0,VALID,91.6945,VALID,0,VALID,19.0398,VALID,65,VALID,0.414453,
2012-02-03, 00:26:04,VALID,918.431,VALID,0,VALID,91.8164,VALID,0,VALID,19.0008,VALID,64,VALID,0.204688,
2012-02-03, 00:27:04,VALID,918.431,VALID,0,VALID,91.946,VALID,0,VALID,19.0008,VALID,65,VALID,0,
2012-02-03, 00:28:04,VALID,918.404,VALID,0,VALID,91.8317,VALID,0,VALID,18.9424,VALID,65,VALID,0.346094,
2012-02-03, 00:29:04,VALID,918.394,VALID,0,VALID,91.7021,VALID,0,VALID,18.9619,VALID,65,VALID,0.0679687,
2012-02-03, 00:30:04,VALID,918.379,VALID,0,VALID,91.6258,VALID,0,VALID,18.9229,VALID,64,VALID,0.110937,
2012-02-03, 00:31:04,VALID,918.386,VALID,0,VALID,91.8088,VALID,0,VALID,18.9424,VALID,65,VALID,0.295703,
2012-02-03, 00:32:04,VALID,918.4,VALID,0,VALID,92.1061,VALID,0,VALID,18.9424,VALID,65,VALID,0.594922,
2012-02-03, 00:33:04,VALID,918.388,VALID,0,VALID,92.1137,VALID,0,VALID,18.9619,VALID,65,VALID,0.503516,
2012-02-03, 00:34:04,VALID,918.4,VALID,0,VALID,92.1366,VALID,0,VALID,18.9814,VALID,65,VALID,0.525,
2012-02-03, 00:35:04,VALID,918.437,VALID,0,VALID,92.1823,VALID,0,VALID,18.9409,VALID,65,VALID,0.847266,
2012-02-03, 00:36:04,VALID,918.415,VALID,0,VALID,92.4415,VALID,0,VALID,18.9619,VALID,65,VALID,0.666016,
2012-02-03, 00:37:04,VALID,918.424,VALID,0,VALID,92.4797,VALID,0,VALID,18.9814,VALID,65,VALID,1.01445,
2012-02-03, 00:38:04,VALID,918.441,VALID,0,VALID,92.4644,VALID,0,VALID,18.9814,VALID,64,VALID,1.30547,
2012-02-03, 00:39:04,VALID,918.453,VALID,0,VALID,92.6321,VALID,0,VALID,18.9814,VALID,163,VALID,1.01133,
2012-02-03, 00:40:04,VALID,918.473,VALID,0,VALID,92.7312,VALID,0,VALID,18.9814,VALID,163,VALID,0.725,
2012-02-03, 00:41:04,VALID,918.492,VALID,0,VALID,92.9294,VALID,0,VALID,18.8824,VALID,163,VALID,0.928125,
2012-02-03, 00:42:04,VALID,918.485,VALID,0,VALID,93.1886,VALID,0,VALID,18.9229,VALID,163,VALID,1.09297,
2012-02-03, 00:43:04,VALID,918.498,VALID,0,VALID,93.3487,VALID,0,VALID,18.8839,VALID,163,VALID,1.11406,
2012-02-03, 00:44:04,VALID,918.505,VALID,0,VALID,93.5088,VALID,0,VALID,18.8644,VALID,163,VALID,1.23516,
2012-02-03, 00:45:04,VALID,918.518,VALID,0,VALID,93.6765,VALID,0,VALID,18.8644,VALID,163,VALID,0.879687,
2012-02-03, 00:46:04,VALID,918.52,VALID,0,VALID,93.8214,VALID,0,VALID,18.8449,VALID,163,VALID,0.317187,
2012-02-03, 00:47:04,VALID,918.495,VALID,0,VALID,94.0043,VALID,0,VALID,18.8449,VALID,163,VALID,0.227734,
2012-02-03, 00:48:04,VALID,918.495,VALID,0,VALID,94.073,VALID,0,VALID,18.8254,VALID,163,VALID,0.477344,
2012-02-03, 00:49:04,VALID,918.488,VALID,0,VALID,94.0882,VALID,0,VALID,18.8449,VALID,163,VALID,0.517969,
2012-02-03, 00:50:04,VALID,918.453,VALID,0,VALID,94.0577,VALID,0,VALID,18.8658,VALID,163,VALID,0.500781,
2012-02-03, 00:51:04,VALID,918.448,VALID,0,VALID,94.0348,VALID,0,VALID,18.8644,VALID,163,VALID,0.29375,
2012-02-03, 00:52:04,VALID,918.437,VALID,0,VALID,93.9586,VALID,0,VALID,18.8644,VALID,163,VALID,0.549219,
2012-02-03, 00:53:04,VALID,918.426,VALID,0,VALID,93.9052,VALID,0,VALID,18.8839,VALID,163,VALID,0.325781,
2012-02-03, 00:54:04,VALID,918.407,VALID,0,VALID,93.8366,VALID,0,VALID,18.9034,VALID,163,VALID,0.541406,
2012-02-03, 00:55:04,VALID,918.358,VALID,0,VALID,93.7604,VALID,0,VALID,18.9424,VALID,163,VALID,0.543359,
2012-02-03, 00:56:04,VALID,918.368,VALID,0,VALID,93.5927,VALID,0,VALID,18.9424,VALID,163,VALID,0.751953,
2012-02-03, 00:57:04,VALID,918.351,VALID,0,VALID,93.4707,VALID,0,VALID,18.9619,VALID,163,VALID,0.729688,
2012-02-03, 00:58:04,VALID,918.344,VALID,0,VALID,93.3335,VALID,0,VALID,18.9799,VALID,163,VALID,0.489844,
2012-02-03, 00:59:04,VALID,918.331,VALID,0,VALID,93.242,VALID,0,VALID,18.9994,VALID,163,VALID,0.627734,
2012-02-03, 01:00:04,VALID,918.322,VALID,0,VALID,93.2344,VALID,0.107441,VALID,18.9994,VALID,163,VALID,0.942578,
2012-02-03, 01:01:04,VALID,918.301,VALID,0,VALID,93.2649,VALID,0,VALID,18.959,VALID,163,VALID,0.713281,
2012-02-03, 01:02:04,VALID,918.309,VALID,0,VALID,93.2344,VALID,0.107441,VALID,18.9799,VALID,163,VALID,0.605469,
2012-02-03, 01:03:04,VALID,918.287,VALID,0,VALID,93.1429,VALID,0,VALID,18.9994,VALID,163,VALID,0.693359,
2012-02-03, 01:04:04,VALID,918.286,VALID,0,VALID,93.1429,VALID,0,VALID,18.9994,VALID,163,VALID,0.913281,
2012-02-03, 01:05:04,VALID,918.249,VALID,0,VALID,93.1353,VALID,0.107441,VALID,18.9604,VALID,115,VALID,1.0918,
2012-02-03, 01:06:04,VALID,918.235,VALID,0,VALID,93.1658,VALID,0,VALID,18.9799,VALID,116,VALID,1.12188,
2012-02-03, 01:07:04,VALID,918.184,VALID,0,VALID,93.4478,VALID,0.107441,VALID,18.9994,VALID,116,VALID,1.50586,
2012-02-03, 01:08:04,VALID,918.169,VALID,0,VALID,93.4707,VALID,0.107441,VALID,19.0189,VALID,116,VALID,0.927734,
2012-02-03, 01:09:04,VALID,918.153,VALID,0,VALID,93.5774,VALID,0.107441,VALID,18.9994,VALID,115,VALID,0.951563,
2012-02-03, 01:10:04,VALID,918.124,VALID,0,VALID,93.7451,VALID,0.107441,VALID,19.0189,VALID,137,VALID,1.04844,
2012-02-03, 01:11:04,VALID,918.131,VALID,0,VALID,93.8976,VALID,0.107441,VALID,18.998,VALID,140,VALID,0.932422,
2012-02-03, 01:12:04,VALID,918.114,VALID,0,VALID,93.9738,VALID,0,VALID,18.9994,VALID,139,VALID,0.800391,
2012-02-03, 01:13:04,VALID,918.16,VALID,0,VALID,94.0882,VALID,0,VALID,19.0203,VALID,160,VALID,1.18477,
2012-02-03, 01:14:04,VALID,918.154,VALID,0,VALID,94.1263,VALID,0,VALID,19.0008,VALID,142,VALID,0.808203,
2012-02-03, 01:15:04,VALID,918.164,VALID,0,VALID,94.1492,VALID,0,VALID,19.0398,VALID,146,VALID,0.599609,
2012-02-03, 01:16:04,VALID,918.157,VALID,0,VALID,94.2026,VALID,0,VALID,19.0203,VALID,173,VALID,0.812891,
2012-02-03, 01:17:04,VALID,918.125,VALID,0,VALID,94.2712,VALID,0,VALID,19.0008,VALID,160,VALID,0.575391,
2012-02-03, 01:18:04,VALID,918.129,VALID,0,VALID,94.3626,VALID,0,VALID,18.9619,VALID,134,VALID,0.939062,
2012-02-03, 01:19:04,VALID,918.11,VALID,0,VALID,94.4694,VALID,0,VALID,18.9229,VALID,142,VALID,0.970312,
2012-02-03, 01:20:04,VALID,918.075,VALID,0,VALID,94.6447,VALID,0,VALID,18.8449,VALID,133,VALID,1.00898,
2012-02-03, 01:21:04,VALID,918.058,VALID,0,VALID,94.8963,VALID,0,VALID,18.785,VALID,133,VALID,1.10781,
2012-02-03, 01:22:04,VALID,918.045,VALID,0,VALID,95.0792,VALID,0,VALID,18.7864,VALID,133,VALID,1.19922,
2012-02-03, 01:23:04,VALID,918.018,VALID,0,VALID,95.2088,VALID,0,VALID,18.7864,VALID,133,VALID,1.02969,
2012-02-03, 01:24:04,VALID,917.999,VALID,0,VALID,95.3232,VALID,0,VALID,18.7669,VALID,133,VALID,1.27344,
2012-02-03, 01:25:04,VALID,918.007,VALID,0,VALID,95.3766,VALID,0,VALID,18.7864,VALID,133,VALID,1.09687,
2012-02-03, 01:26:04,VALID,918.007,VALID,0,VALID,95.4071,VALID,0,VALID,18.8254,VALID,133,VALID,0.991797,
2012-02-03, 01:27:04,VALID,917.98,VALID,0,VALID,95.4147,VALID,0,VALID,18.8449,VALID,133,VALID,1.03047,
2012-02-03, 01:28:04,VALID,917.964,VALID,0,VALID,95.4147,VALID,0,VALID,18.9048,VALID,133,VALID,1.26133,
2012-02-03, 01:29:04,VALID,917.94,VALID,0,VALID,95.2851,VALID,0,VALID,18.8644,VALID,133,VALID,1.05547,
2012-02-03, 01:30:04,VALID,917.893,VALID,0,VALID,95.186,VALID,0,VALID,18.9424,VALID,133,VALID,1.24492,
2012-02-03, 01:31:04,VALID,917.892,VALID,0,VALID,95.1097,VALID,0,VALID,18.9424,VALID,132,VALID,1.44062,
2012-02-03, 01:32:04,VALID,917.892,VALID,0,VALID,94.9954,VALID,0,VALID,18.9814,VALID,138,VALID,1.1832,
2012-02-03, 01:33:04,VALID,917.842,VALID,0,VALID,94.82,VALID,0,VALID,18.9619,VALID,141,VALID,1.29492,
2012-02-03, 01:34:04,VALID,917.816,VALID,0,VALID,94.6676,VALID,0,VALID,18.9814,VALID,141,VALID,1.21523,
2012-02-03, 01:35:04,VALID,917.784,VALID,0,VALID,94.5151,VALID,0,VALID,18.9619,VALID,141,VALID,0.9625,
2012-02-03, 01:36:04,VALID,917.772,VALID,0,VALID,94.4236,VALID,0,VALID,18.9604,VALID,152,VALID,1.06445,
2012-02-03, 01:37:04,VALID,917.741,VALID,0,VALID,94.3321,VALID,0,VALID,19.0203,VALID,142,VALID,1.33984,
2012-02-03, 01:38:04,VALID,917.73,VALID,0,VALID,94.2712,VALID,0,VALID,18.9619,VALID,165,VALID,0.738281,
2012-02-03, 01:39:04,VALID,917.677,VALID,0,VALID,94.2712,VALID,0,VALID,18.9619,VALID,137,VALID,0.654297,
2012-02-03, 01:40:04,VALID,917.667,VALID,0,VALID,94.2407,VALID,0,VALID,18.9619,VALID,137,VALID,0.884766,
2012-02-03, 01:41:04,VALID,917.64,VALID,0,VALID,94.2864,VALID,0,VALID,18.9229,VALID,137,VALID,1.04219,
2012-02-03, 01:42:04,VALID,917.659,VALID,0,VALID,94.3703,VALID,0,VALID,18.8449,VALID,137,VALID,1.06289,
2012-02-03, 01:43:04,VALID,917.622,VALID,0,VALID,94.4389,VALID,0.107441,VALID,18.785,VALID,137,VALID,1.05859,
2012-02-03, 01:44:04,VALID,917.648,VALID,0,VALID,94.5532,VALID,0,VALID,18.824,VALID,137,VALID,0.862109,
2012-02-03, 01:45:04,VALID,917.636,VALID,0,VALID,94.5609,VALID,0.107441,VALID,18.824,VALID,137,VALID,0.626562,
2012-02-03, 01:46:04,VALID,917.578,VALID,0,VALID,94.4617,VALID,0,VALID,18.7655,VALID,137,VALID,0.626953,
2012-02-03, 01:47:04,VALID,917.58,VALID,0,VALID,94.3626,VALID,0.107441,VALID,18.8045,VALID,137,VALID,0.359375,
2012-02-03, 01:48:04,VALID,917.57,VALID,0,VALID,94.2483,VALID,0,VALID,18.7655,VALID,137,VALID,0.532031,
2012-02-03, 01:49:04,VALID,917.547,VALID,0,VALID,94.1797,VALID,0.107441,VALID,18.8434,VALID,137,VALID,0.658203,
2012-02-03, 01:50:04,VALID,917.477,VALID,0,VALID,93.9205,VALID,0.107441,VALID,18.764,VALID,138,VALID,1.04805,
2012-02-03, 01:51:04,VALID,917.465,VALID,0,VALID,93.8061,VALID,0,VALID,18.785,VALID,138,VALID,0.728906,
2012-02-03, 01:52:04,VALID,917.416,VALID,0,VALID,93.8061,VALID,0.107441,VALID,18.746,VALID,138,VALID,1.05898,
2012-02-03, 01:53:04,VALID,917.403,VALID,0,VALID,93.7223,VALID,0,VALID,18.746,VALID,138,VALID,1.125,
2012-02-03, 01:54:04,VALID,917.379,VALID,0,VALID,93.6003,VALID,0.107441,VALID,18.7265,VALID,138,VALID,1.09805,
2012-02-03, 01:55:05,VALID,917.4,VALID,0,VALID,93.5164,VALID,0,VALID,18.707,VALID,138,VALID,0.7,
2012-02-03, 01:56:05,VALID,917.363,VALID,0,VALID,93.4783,VALID,0.107441,VALID,18.707,VALID,138,VALID,0.361328,
2012-02-03, 01:57:05,VALID,917.369,VALID,0,VALID,92.9523,VALID,0.107441,VALID,18.6485,VALID,148,VALID,0.895312,
2012-02-03, 01:58:05,VALID,917.381,VALID,0,VALID,92.2052,VALID,0,VALID,18.6889,VALID,163,VALID,1.27422,
2012-02-03, 01:59:05,VALID,917.381,VALID,0,VALID,91.603,VALID,0,VALID,18.7279,VALID,168,VALID,1.53047,
2012-02-03, 02:00:05,VALID,917.391,VALID,0,VALID,91.1532,VALID,0,VALID,18.7669,VALID,167,VALID,1.56797,
2012-02-03, 02:01:05,VALID,917.397,VALID,0,VALID,90.3604,VALID,0,VALID,18.7655,VALID,151,VALID,0.988281,
2012-02-03, 02:02:05,VALID,917.4,VALID,0,VALID,89.4303,VALID,0,VALID,18.8254,VALID,154,VALID,1.4293,
2012-02-03, 02:03:05,VALID,917.381,VALID,0,VALID,88.8204,VALID,0,VALID,18.9229,VALID,156,VALID,1.41484,
2012-02-03, 02:04:05,VALID,917.362,VALID,0,VALID,88.1877,VALID,0,VALID,18.9229,VALID,133,VALID,1.66328,
2012-02-03, 02:05:05,VALID,917.39,VALID,0,VALID,87.5549,VALID,0,VALID,18.9814,VALID,141,VALID,1.43984,
2012-02-03, 02:06:05,VALID,917.372,VALID,0,VALID,86.785,VALID,0,VALID,19.0203,VALID,146,VALID,1.6332,
2012-02-03, 02:07:05,VALID,917.355,VALID,0,VALID,86.9984,VALID,0,VALID,19.0788,VALID,138,VALID,0.783984,
2012-02-03, 02:08:05,VALID,917.387,VALID,0,VALID,86.6859,VALID,0,VALID,19.0788,VALID,141,VALID,1.12344,
2012-02-03, 02:09:05,VALID,917.361,VALID,0,VALID,86.3733,VALID,0,VALID,19.1178,VALID,141,VALID,1.26758,
2012-02-03, 02:10:05,VALID,917.367,VALID,0,VALID,86.4724,VALID,0,VALID,19.0969,VALID,141,VALID,1.14375,
2012-02-03, 02:11:05,VALID,917.325,VALID,0,VALID,86.1294,VALID,0,VALID,19.1568,VALID,136,VALID,1.33398,
2012-02-03, 02:12:05,VALID,917.319,VALID,0,VALID,85.8168,VALID,0,VALID,19.1763,VALID,136,VALID,1.16719,
2012-02-03, 02:13:05,VALID,917.319,VALID,0,VALID,85.6415,VALID,0,VALID,19.1763,VALID,136,VALID,1.09844,
2012-02-03, 02:14:05,VALID,917.31,VALID,0,VALID,85.9007,VALID,0,VALID,19.1958,VALID,136,VALID,0.904297,
2012-02-03, 02:15:05,VALID,917.296,VALID,0,VALID,85.6415,VALID,0,VALID,19.2153,VALID,136,VALID,1.15195,
2012-02-03, 02:16:05,VALID,917.304,VALID,0,VALID,85.3518,VALID,0,VALID,19.1958,VALID,136,VALID,1.12031,
2012-02-03, 02:17:05,VALID,917.314,VALID,0,VALID,85.3594,VALID,0,VALID,19.1958,VALID,136,VALID,0.921875,
2012-02-03, 02:18:05,VALID,917.301,VALID,0,VALID,85.1383,VALID,0,VALID,19.2153,VALID,136,VALID,0.864844,
2012-02-03, 02:19:05,VALID,917.31,VALID,0,VALID,85.6796,VALID,0,VALID,19.2348,VALID,136,VALID,0.569531,
2012-02-03, 02:20:05,VALID,917.324,VALID,0,VALID,85.771,VALID,0,VALID,19.1958,VALID,136,VALID,0.835156,
2012-02-03, 02:21:05,VALID,917.315,VALID,0,VALID,86.0303,VALID,0,VALID,19.2168,VALID,136,VALID,0.75625,
2012-02-03, 02:22:05,VALID,917.29,VALID,0,VALID,86.1751,VALID,0,VALID,19.1763,VALID,136,VALID,0.757422,
2012-02-03, 02:23:05,VALID,917.294,VALID,0,VALID,86.5868,VALID,0,VALID,19.1373,VALID,136,VALID,0.897266,
2012-02-03, 02:24:05,VALID,917.29,VALID,0,VALID,86.8383,VALID,0,VALID,19.0788,VALID,136,VALID,0.70625,
2012-02-03, 02:25:05,VALID,917.272,VALID,0,VALID,87.2195,VALID,0,VALID,19.0803,VALID,136,VALID,0.839063,
2012-02-03, 02:26:05,VALID,917.269,VALID,0,VALID,87.5016,VALID,0,VALID,18.9994,VALID,136,VALID,1,
2012-02-03, 02:27:05,VALID,917.263,VALID,0,VALID,88.0581,VALID,0,VALID,18.9619,VALID,136,VALID,1.04766,
2012-02-03, 02:28:05,VALID,917.236,VALID,0,VALID,88.4697,VALID,0,VALID,18.9814,VALID,136,VALID,1.04922,
2012-02-03, 02:29:05,VALID,917.24,VALID,0,VALID,88.7137,VALID,0,VALID,18.9619,VALID,137,VALID,1.05781,
2012-02-03, 02:30:05,VALID,917.225,VALID,0,VALID,88.668,VALID,0,VALID,18.9814,VALID,136,VALID,1.25781,
2012-02-03, 02:31:05,VALID,917.223,VALID,0,VALID,88.6908,VALID,0,VALID,19.0398,VALID,136,VALID,1.18047,
2012-02-03, 02:32:05,VALID,917.213,VALID,0,VALID,88.9119,VALID,0,VALID,19.0398,VALID,136,VALID,1.59727,
2012-02-03, 02:33:05,VALID,917.218,VALID,0,VALID,89.1101,VALID,0,VALID,19.0593,VALID,136,VALID,0.964063,
2012-02-03, 02:34:05,VALID,917.216,VALID,0,VALID,89.194,VALID,0,VALID,19.0593,VALID,136,VALID,0.835938,
2012-02-03, 02:35:05,VALID,917.23,VALID,0,VALID,89.4837,VALID,0,VALID,19.0398,VALID,136,VALID,1.15625,
2012-02-03, 02:36:05,VALID,917.207,VALID,0,VALID,89.6361,VALID,0,VALID,19.0593,VALID,136,VALID,1.01172,
2012-02-03, 02:37:05,VALID,917.2,VALID,0,VALID,89.7733,VALID,0,VALID,19.0593,VALID,136,VALID,1.1207,
2012-02-03, 02:38:05,VALID,917.181,VALID,0,VALID,89.6133,VALID,0,VALID,19.0398,VALID,136,VALID,1.09258,
2012-02-03, 02:39:05,VALID,917.18,VALID,0,VALID,89.6895,VALID,0,VALID,19.0203,VALID,136,VALID,0.940625,
2012-02-03, 02:40:05,VALID,917.191,VALID,0,VALID,89.8496,VALID,0,VALID,18.9814,VALID,136,VALID,1.04219,
2012-02-03, 02:41:05,VALID,917.196,VALID,0,VALID,89.9106,VALID,0,VALID,18.9814,VALID,136,VALID,0.826563,
2012-02-03, 02:42:05,VALID,917.182,VALID,0,VALID,89.9487,VALID,0,VALID,18.9619,VALID,136,VALID,0.578125,
2012-02-03, 02:43:05,VALID,917.194,VALID,0,VALID,90.0173,VALID,0,VALID,18.9619,VALID,136,VALID,0.458203,
2012-02-03, 02:44:05,VALID,917.176,VALID,0,VALID,89.9792,VALID,0,VALID,18.9229,VALID,136,VALID,0.532031,
2012-02-03, 02:45:05,VALID,917.19,VALID,0,VALID,90.0173,VALID,0,VALID,18.9229,VALID,136,VALID,0.389062,
2012-02-03, 02:46:05,VALID,917.172,VALID,0,VALID,90.0325,VALID,0,VALID,18.9034,VALID,136,VALID,0.606641,
2012-02-03, 02:47:05,VALID,917.157,VALID,0,VALID,89.8953,VALID,0,VALID,18.8839,VALID,136,VALID,0.874609,
2012-02-03, 02:48:05,VALID,917.133,VALID,0,VALID,89.9334,VALID,0,VALID,18.8839,VALID,136,VALID,0.6,
2012-02-03, 02:49:05,VALID,917.149,VALID,0,VALID,90.4137,VALID,0,VALID,18.8644,VALID,136,VALID,0.504687,
2012-02-03, 02:50:05,VALID,917.149,VALID,0,VALID,90.4899,VALID,0,VALID,18.8644,VALID,136,VALID,0.425391,
2012-02-03, 02:51:05,VALID,917.148,VALID,0,VALID,90.65,VALID,0,VALID,18.8059,VALID,136,VALID,0.467578,
2012-02-03, 02:52:05,VALID,917.156,VALID,0,VALID,90.7568,VALID,0,VALID,18.7669,VALID,136,VALID,0.750391,
2012-02-03, 02:53:05,VALID,917.155,VALID,0,VALID,90.5509,VALID,0,VALID,18.7265,VALID,136,VALID,0.674609,
2012-02-03, 02:54:05,VALID,917.147,VALID,0,VALID,90.3985,VALID,0,VALID,18.6875,VALID,136,VALID,0.68125,
2012-02-03, 02:55:05,VALID,917.155,VALID,0,VALID,90.7034,VALID,0,VALID,18.7084,VALID,136,VALID,0.711328,
2012-02-03, 02:56:05,VALID,917.173,VALID,0,VALID,90.7187,VALID,0,VALID,18.7084,VALID,136,VALID,0.79375,
2012-02-03, 02:57:05,VALID,917.167,VALID,0,VALID,91.0617,VALID,0,VALID,18.6694,VALID,136,VALID,0.489062,
2012-02-03, 02:58:05,VALID,917.177,VALID,0,VALID,91.4048,VALID,0,VALID,18.6694,VALID,136,VALID,0.212891,
2012-02-03, 02:59:05,VALID,917.146,VALID,0,VALID,91.7326,VALID,0,VALID,18.6304,VALID,136,VALID,0.0898438,
2012-02-03, 03:00:05,VALID,917.114,VALID,0,VALID,92.0299,VALID,0,VALID,18.6319,VALID,136,VALID,0.189453,
2012-02-03, 03:01:05,VALID,917.116,VALID,0,VALID,92.2052,VALID,0,VALID,18.5914,VALID,136,VALID,0.279687,
2012-02-03, 03:02:05,VALID,917.113,VALID,0,VALID,92.4797,VALID,0,VALID,18.533,VALID,136,VALID,0.581641,
2012-02-03, 03:03:05,VALID,917.099,VALID,0,VALID,92.6855,VALID,0,VALID,18.494,VALID,136,VALID,0.585938,
2012-02-03, 03:04:05,VALID,917.082,VALID,0,VALID,92.8227,VALID,0,VALID,18.4355,VALID,136,VALID,0.801953,
2012-02-03, 03:05:05,VALID,917.079,VALID,0,VALID,93.0514,VALID,0,VALID,18.4355,VALID,136,VALID,0.935547,
2012-02-03, 03:06:05,VALID,917.044,VALID,0,VALID,93.059,VALID,0,VALID,18.416,VALID,136,VALID,1.06094,
2012-02-03, 03:07:05,VALID,917.031,VALID,0,VALID,92.7617,VALID,0,VALID,18.3756,VALID,136,VALID,0.936719,
2012-02-03, 03:08:05,VALID,917.005,VALID,0,VALID,92.4568,VALID,0,VALID,18.416,VALID,136,VALID,0.907031,
2012-02-03, 03:09:05,VALID,917.033,VALID,0,VALID,92.0604,VALID,0,VALID,18.4355,VALID,136,VALID,0.971875,
2012-02-03, 03:10:05,VALID,917.016,VALID,0,VALID,91.4962,VALID,0,VALID,18.4745,VALID,136,VALID,0.894531,
2012-02-03, 03:11:05,VALID,916.993,VALID,0,VALID,91.3057,VALID,0,VALID,18.5149,VALID,136,VALID,0.878125,
2012-02-03, 03:12:05,VALID,917.004,VALID,0,VALID,91.1227,VALID,0,VALID,18.5135,VALID,136,VALID,0.768359,
2012-02-03, 03:13:05,VALID,916.991,VALID,0,VALID,91.1456,VALID,0,VALID,18.5734,VALID,136,VALID,0.991797,
2012-02-03, 03:14:05,VALID,916.994,VALID,0,VALID,91.5039,VALID,0,VALID,18.5525,VALID,136,VALID,1.03398,
2012-02-03, 03:15:05,VALID,916.987,VALID,0,VALID,91.5267,VALID,0,VALID,18.572,VALID,136,VALID,1.1457,
2012-02-03, 03:16:05,VALID,916.999,VALID,0,VALID,91.5344,VALID,0,VALID,18.572,VALID,136,VALID,0.903906,
2012-02-03, 03:17:05,VALID,916.983,VALID,0,VALID,91.6182,VALID,0,VALID,18.572,VALID,156,VALID,1.08984,
2012-02-03, 03:18:05,VALID,917,VALID,0,VALID,91.9384,VALID,0,VALID,18.5525,VALID,157,VALID,0.798437,
2012-02-03, 03:19:05,VALID,916.96,VALID,0,VALID,92.4034,VALID,0,VALID,18.533,VALID,158,VALID,0.896875,
2012-02-03, 03:20:05,VALID,916.952,VALID,0,VALID,92.7998,VALID,0,VALID,18.494,VALID,157,VALID,1.17383,
2012-02-03, 03:21:05,VALID,916.957,VALID,0,VALID,92.9904,VALID,0,VALID,18.4745,VALID,150,VALID,0.972656,
2012-02-03, 03:22:05,VALID,916.979,VALID,0,VALID,93.0209,VALID,0,VALID,18.4745,VALID,150,VALID,0.796875,
2012-02-03, 03:23:05,VALID,916.965,VALID,0,VALID,92.9599,VALID,0,VALID,18.4759,VALID,150,VALID,0.789063,
2012-02-03, 03:24:05,VALID,916.958,VALID,0,VALID,92.8989,VALID,0,VALID,18.455,VALID,150,VALID,0.759766,
2012-02-03, 03:25:05,VALID,916.947,VALID,0,VALID,92.838,VALID,0,VALID,18.4954,VALID,150,VALID,0.85625,
2012-02-03, 03:26:05,VALID,916.969,VALID,0,VALID,92.7465,VALID,0,VALID,18.494,VALID,150,VALID,0.437109,
2012-02-03, 03:27:05,VALID,916.951,VALID,0,VALID,92.716,VALID,0,VALID,18.5135,VALID,150,VALID,0.460547,
2012-02-03, 03:28:05,VALID,916.952,VALID,0,VALID,92.6779,VALID,0,VALID,18.5316,VALID,160,VALID,0.883984,
2012-02-03, 03:29:05,VALID,916.932,VALID,0,VALID,92.7312,VALID,0,VALID,18.572,VALID,181,VALID,1,
2012-02-03, 03:30:05,VALID,916.914,VALID,0,VALID,92.8685,VALID,0,VALID,18.572,VALID,181,VALID,0.596484,
2012-02-03, 03:31:05,VALID,916.875,VALID,0,VALID,92.5559,VALID,0.107441,VALID,18.5511,VALID,181,VALID,1.01211,
2012-02-03, 03:32:05,VALID,916.869,VALID,0,VALID,92.129,VALID,0.107441,VALID,18.5316,VALID,174,VALID,1.09805,
2012-02-03, 03:33:05,VALID,916.834,VALID,0,VALID,91.7935,VALID,0.107441,VALID,18.5511,VALID,174,VALID,0.994922,
2012-02-03, 03:34:05,VALID,916.786,VALID,0,VALID,91.7021,VALID,0.107441,VALID,18.5705,VALID,167,VALID,1.00742,
2012-02-03, 03:35:05,VALID,916.759,VALID,0,VALID,91.3285,VALID,0,VALID,18.5511,VALID,154,VALID,0.734766,
2012-02-03, 03:36:05,VALID,916.733,VALID,0,VALID,91.4734,VALID,0.107441,VALID,18.5705,VALID,154,VALID,0.728125,
2012-02-03, 03:37:05,VALID,916.726,VALID,0,VALID,90.8864,VALID,0,VALID,18.5705,VALID,154,VALID,1.11289,
2012-02-03, 03:38:05,VALID,916.701,VALID,0,VALID,90.2079,VALID,0,VALID,18.5705,VALID,154,VALID,0.975391,
2012-02-03, 03:39:05,VALID,916.71,VALID,0,VALID,90.0707,VALID,0,VALID,18.6109,VALID,154,VALID,0.537891,
2012-02-03, 03:40:05,VALID,916.697,VALID,0,VALID,90.0021,VALID,0,VALID,18.6095,VALID,155,VALID,0.926172,
2012-02-03, 03:41:05,VALID,916.677,VALID,0,VALID,90.0249,VALID,0,VALID,18.6095,VALID,156,VALID,1.28164,
2012-02-03, 03:42:05,VALID,916.699,VALID,0,VALID,90.1621,VALID,0,VALID,18.6095,VALID,167,VALID,0.622266,
2012-02-03, 03:43:05,VALID,916.685,VALID,0,VALID,89.9792,VALID,0,VALID,18.5914,VALID,144,VALID,0.860937,
2012-02-03, 03:44:05,VALID,916.691,VALID,0,VALID,90.1698,VALID,0,VALID,18.6319,VALID,144,VALID,0.773047,